Location: Brno
(49.2000°N, 16.6330°E)
Time: 10:24:28
(UTC+02:00)

Meteor 1-4 Rocket - Visible Passes

Search period start: 24 July 2014 00:00
Search period end: 03 August 2014 00:00
Orbit: 470 x 538 km, 81.2° (Epoch: 23 July)

Date Brightness Start Highest point End Pass type
(mag) Time Alt. Az. Time Alt. Az. Time Alt. Az.
24 Jul 5.6 02:10:58 10° NE 02:11:52 11° ENE 02:12:46 10° ENE visible
24 Jul 2.4 03:44:25 10° NNW 03:47:59 69° W 03:51:31 10° S visible
25 Jul 2.5 03:25:45 10° NNW 03:29:20 89° E 03:32:32 13° S visible
26 Jul 2.8 03:07:07 10° N 03:10:41 67° ENE 03:13:27 16° SSE visible
27 Jul 3.3 02:48:31 10° N 02:52:01 50° ENE 02:54:25 18° SE visible
27 Jul 4.6 04:25:34 10° WNW 04:27:11 13° W 04:28:49 10° WSW visible
28 Jul 3.8 02:29:57 10° N 02:33:19 38° ENE 02:35:25 19° SE visible
28 Jul 4.3 04:06:21 10° NW 04:08:39 16° W 04:10:09 13° WSW visible
29 Jul 4.2 02:11:26 10° N 02:14:37 29° ENE 02:16:28 19° ESE visible
29 Jul 4.0 03:47:21 10° NW 03:50:05 21° W 03:51:13 18° WSW visible
30 Jul 4.6 01:52:57 10° NNE 01:55:54 23° ENE 01:57:34 17° ESE visible
30 Jul 3.7 03:28:27 10° NW 03:31:30 26° W 03:32:18 24° WSW visible
31 Jul 4.8 01:34:33 10° NNE 01:37:09 19° ENE 01:38:41 15° E visible
31 Jul 3.3 03:09:37 10° NNW 03:12:54 34° W 03:13:26 32° WSW visible
01 Aug 5.1 01:16:14 10° NNE 01:18:24 15° ENE 01:19:50 13° E visible
01 Aug 2.9 02:50:50 10° NNW 02:54:17 45° W 02:54:35 44° WSW visible
02 Aug 5.3 00:58:08 10° NE 00:59:37 12° ENE 01:01:01 10° E visible
02 Aug 2.5 02:32:05 10° NNW 02:35:39 61° W 02:35:45 60° WSW visible
